Year,Month,Day,Hour,Minute,Value (Times are PST for temperature in C)
2019,10,09,00,00,7.40
2019,10,09,00,01,7.30
2019,10,09,00,02,7.30
2019,10,09,00,03,7.30
2019,10,09,00,04,7.30
2019,10,09,00,05,7.30
2019,10,09,00,06,7.20
2019,10,09,00,07,7.20
2019,10,09,00,08,7.20
2019,10,09,00,09,7.20
2019,10,09,00,10,7.20
2019,10,09,00,11,7.10
2019,10,09,00,12,7.10
2019,10,09,00,13,7.10
2019,10,09,00,14,7.10
2019,10,09,00,15,7.10
2019,10,09,00,16,7.10
2019,10,09,00,17,7.10
2019,10,09,00,18,7.10
2019,10,09,00,19,7.00
2019,10,09,00,20,7.00
2019,10,09,00,21,7.00
2019,10,09,00,22,7.00
2019,10,09,00,23,7.00
2019,10,09,00,24,7.00
2019,10,09,00,25,7.00
2019,10,09,00,26,7.00
2019,10,09,00,27,7.00
2019,10,09,00,28,7.00
2019,10,09,00,29,7.00
2019,10,09,00,30,7.00
2019,10,09,00,31,7.00
2019,10,09,00,32,6.90
2019,10,09,00,33,6.90
2019,10,09,00,34,6.90
2019,10,09,00,35,6.90
2019,10,09,00,36,6.90
2019,10,09,00,37,6.90
2019,10,09,00,38,6.90
2019,10,09,00,39,6.90
2019,10,09,00,40,6.90
2019,10,09,00,41,7.00
2019,10,09,00,42,7.00
2019,10,09,00,43,7.00
2019,10,09,00,44,7.00
2019,10,09,00,45,7.00
2019,10,09,00,46,6.90
2019,10,09,00,47,6.90
2019,10,09,00,48,6.90
2019,10,09,00,49,6.90
2019,10,09,00,50,6.90
2019,10,09,00,51,6.90
2019,10,09,00,52,6.80
2019,10,09,00,53,6.80
2019,10,09,00,54,6.80
2019,10,09,00,55,6.80
2019,10,09,00,56,6.80
2019,10,09,00,57,6.80
2019,10,09,00,58,6.80
2019,10,09,00,59,6.70
2019,10,09,01,00,6.70
2019,10,09,01,01,6.70
2019,10,09,01,02,6.70
2019,10,09,01,03,6.70
2019,10,09,01,04,6.70
2019,10,09,01,05,6.70
2019,10,09,01,06,6.70
2019,10,09,01,07,6.70
2019,10,09,01,08,6.70
2019,10,09,01,09,6.80
2019,10,09,01,10,6.80
2019,10,09,01,11,6.80
2019,10,09,01,12,6.80
2019,10,09,01,13,6.80
2019,10,09,01,14,6.90
2019,10,09,01,15,6.90
2019,10,09,01,16,6.90
2019,10,09,01,17,6.90
2019,10,09,01,18,6.90
2019,10,09,01,19,6.90
2019,10,09,01,20,6.90
2019,10,09,01,21,6.90
2019,10,09,01,22,6.90
2019,10,09,01,23,6.90
2019,10,09,01,24,6.90
2019,10,09,01,25,6.90
2019,10,09,01,26,7.00
2019,10,09,01,27,7.00
2019,10,09,01,28,7.00
2019,10,09,01,29,7.00
2019,10,09,01,30,7.00
2019,10,09,01,31,7.00
2019,10,09,01,32,7.00
2019,10,09,01,33,6.90
2019,10,09,01,34,6.90
2019,10,09,01,35,6.90
2019,10,09,01,36,7.00
2019,10,09,01,37,7.00
2019,10,09,01,38,7.00
2019,10,09,01,39,7.00
2019,10,09,01,40,7.10
2019,10,09,01,41,7.10
2019,10,09,01,42,7.20
2019,10,09,01,43,7.20
2019,10,09,01,44,7.20
2019,10,09,01,45,7.30
2019,10,09,01,46,7.30
2019,10,09,01,47,7.30
2019,10,09,01,48,7.30
2019,10,09,01,49,7.30
2019,10,09,01,50,7.30
2019,10,09,01,51,7.30
2019,10,09,01,52,7.30
2019,10,09,01,53,7.40
2019,10,09,01,54,7.40
2019,10,09,01,55,7.40
2019,10,09,01,56,7.40
2019,10,09,01,57,7.40
2019,10,09,01,58,7.40
2019,10,09,01,59,7.40
2019,10,09,02,00,7.40
2019,10,09,02,01,7.40
2019,10,09,02,02,7.50
2019,10,09,02,03,7.50
2019,10,09,02,04,7.50
2019,10,09,02,05,7.50
2019,10,09,02,06,7.50
2019,10,09,02,07,7.50
2019,10,09,02,08,7.50
2019,10,09,02,09,7.60
2019,10,09,02,10,7.60
2019,10,09,02,11,7.60
2019,10,09,02,12,7.60
2019,10,09,02,13,7.50
2019,10,09,02,14,7.50
2019,10,09,02,15,7.40
2019,10,09,02,16,7.40
2019,10,09,02,17,7.30
2019,10,09,02,18,7.30
2019,10,09,02,19,7.20
2019,10,09,02,20,7.20
2019,10,09,02,21,7.20
2019,10,09,02,22,7.10
2019,10,09,02,23,7.10
2019,10,09,02,24,7.10
2019,10,09,02,25,7.10
2019,10,09,02,26,7.10
2019,10,09,02,27,7.10
2019,10,09,02,28,7.00
2019,10,09,02,29,7.00
2019,10,09,02,30,6.90
2019,10,09,02,31,6.90
2019,10,09,02,32,6.80
2019,10,09,02,33,6.80
2019,10,09,02,34,6.80
2019,10,09,02,35,6.70
2019,10,09,02,36,6.70
2019,10,09,02,37,6.70
2019,10,09,02,38,6.70
2019,10,09,02,39,6.60
2019,10,09,02,40,6.60
2019,10,09,02,41,6.50
2019,10,09,02,42,6.40
2019,10,09,02,43,6.40
2019,10,09,02,44,6.40
2019,10,09,02,45,6.40
2019,10,09,02,46,6.30
2019,10,09,02,47,6.30
2019,10,09,02,48,6.30
2019,10,09,02,49,6.30
2019,10,09,02,50,6.30
2019,10,09,02,51,6.30
2019,10,09,02,52,6.30
2019,10,09,02,53,6.20
2019,10,09,02,54,6.10
2019,10,09,02,55,6.10
2019,10,09,02,56,6.10
2019,10,09,02,57,6.00
2019,10,09,02,58,6.00
2019,10,09,02,59,5.90
2019,10,09,03,00,5.90
2019,10,09,03,01,5.90
2019,10,09,03,02,5.90
2019,10,09,03,03,5.80
2019,10,09,03,04,5.80
2019,10,09,03,05,5.80
2019,10,09,03,06,5.80
2019,10,09,03,07,5.70
2019,10,09,03,08,5.70
2019,10,09,03,09,5.70
2019,10,09,03,10,5.70
2019,10,09,03,11,5.70
2019,10,09,03,12,5.60
2019,10,09,03,13,5.60
2019,10,09,03,14,5.60
2019,10,09,03,15,5.60
2019,10,09,03,16,5.60
2019,10,09,03,17,5.60
2019,10,09,03,18,5.60
2019,10,09,03,19,5.60
2019,10,09,03,20,5.60
2019,10,09,03,21,5.60
2019,10,09,03,22,5.60
2019,10,09,03,23,5.60
2019,10,09,03,24,5.60
2019,10,09,03,25,5.60
2019,10,09,03,26,5.60
2019,10,09,03,27,5.60
2019,10,09,03,28,5.60
2019,10,09,03,29,5.60
2019,10,09,03,30,5.60
2019,10,09,03,31,5.60
2019,10,09,03,32,5.60
2019,10,09,03,33,5.60
2019,10,09,03,34,5.60
2019,10,09,03,35,5.60
2019,10,09,03,36,5.60
2019,10,09,03,37,5.70
2019,10,09,03,38,5.70
2019,10,09,03,39,5.70
2019,10,09,03,40,5.70
2019,10,09,03,41,5.70
2019,10,09,03,42,5.70
2019,10,09,03,43,5.80
2019,10,09,03,44,5.80
2019,10,09,03,45,5.80
2019,10,09,03,46,5.80
2019,10,09,03,47,5.80
2019,10,09,03,48,5.80
2019,10,09,03,49,5.80
2019,10,09,03,50,5.90
2019,10,09,03,51,5.90
2019,10,09,03,52,5.90
2019,10,09,03,53,5.90
2019,10,09,03,54,5.90
2019,10,09,03,55,5.90
2019,10,09,03,56,5.80
2019,10,09,03,57,5.80
2019,10,09,03,58,5.80
2019,10,09,03,59,5.80
2019,10,09,04,00,5.80
2019,10,09,04,01,5.80
2019,10,09,04,02,5.80
2019,10,09,04,03,5.80
2019,10,09,04,04,5.80
2019,10,09,04,05,5.80
2019,10,09,04,06,5.80
2019,10,09,04,07,5.80
2019,10,09,04,08,5.80
2019,10,09,04,09,5.80
2019,10,09,04,10,5.80
2019,10,09,04,11,5.80
2019,10,09,04,12,5.90
2019,10,09,04,13,5.90
2019,10,09,04,14,5.90
2019,10,09,04,15,5.90
2019,10,09,04,16,5.90
2019,10,09,04,17,5.90
2019,10,09,04,18,6.00
2019,10,09,04,19,6.00
2019,10,09,04,20,6.10
2019,10,09,04,21,6.10
2019,10,09,04,22,6.10
2019,10,09,04,23,6.10
2019,10,09,04,24,6.10
2019,10,09,04,25,6.10
2019,10,09,04,26,6.10
2019,10,09,04,27,6.10
2019,10,09,04,28,6.10
2019,10,09,04,29,6.10
2019,10,09,04,30,6.10
2019,10,09,07,54,5.10
2019,10,09,07,55,5.10
2019,10,09,07,56,5.10
2019,10,09,07,57,5.20
2019,10,09,07,58,5.20
2019,10,09,07,59,5.20
2019,10,09,08,00,5.10
2019,10,09,08,01,5.20
2019,10,09,08,02,5.10
2019,10,09,08,03,5.10
2019,10,09,08,04,5.10
2019,10,09,08,05,5.10
2019,10,09,08,06,5.10
2019,10,09,08,07,5.10
2019,10,09,08,08,5.10
2019,10,09,08,09,5.10
2019,10,09,08,10,5.10
2019,10,09,08,11,5.10
2019,10,09,08,12,5.10
2019,10,09,08,13,5.10
2019,10,09,08,14,5.10
2019,10,09,08,15,5.10
2019,10,09,08,16,5.00
2019,10,09,08,17,5.00
2019,10,09,08,18,5.00
2019,10,09,08,19,5.00
2019,10,09,08,20,5.10
2019,10,09,08,21,5.10
2019,10,09,08,22,5.10
2019,10,09,08,23,5.10
2019,10,09,08,24,5.10
2019,10,09,08,25,5.10
2019,10,09,08,26,5.10
2019,10,09,08,27,5.20
2019,10,09,08,28,5.20
2019,10,09,08,29,5.20
2019,10,09,08,30,5.20
2019,10,09,08,31,5.30
2019,10,09,08,32,5.30
2019,10,09,08,33,5.30
2019,10,09,08,34,5.30
2019,10,09,08,35,5.30
2019,10,09,08,36,5.40
2019,10,09,08,37,5.40
2019,10,09,08,38,5.40
2019,10,09,08,39,5.50
2019,10,09,08,40,5.50
2019,10,09,08,41,5.60
2019,10,09,08,42,5.60
2019,10,09,08,43,5.70
2019,10,09,08,44,5.70
2019,10,09,08,45,5.80
2019,10,09,08,46,5.80
2019,10,09,08,47,5.80
2019,10,09,08,48,5.80
2019,10,09,08,49,5.90
2019,10,09,08,50,5.90
2019,10,09,08,51,5.90
2019,10,09,08,52,5.90
2019,10,09,08,53,6.00
2019,10,09,08,54,6.00
2019,10,09,08,55,6.00
2019,10,09,08,56,6.10
2019,10,09,08,57,6.10
2019,10,09,08,58,6.20
2019,10,09,08,59,6.20
2019,10,09,09,00,6.20
2019,10,09,09,01,6.20
2019,10,09,09,02,6.30
2019,10,09,09,03,6.30
2019,10,09,09,04,6.30
2019,10,09,09,05,6.30
2019,10,09,09,06,6.40
2019,10,09,09,07,6.40
2019,10,09,09,08,6.40
2019,10,09,09,09,6.40
2019,10,09,09,10,6.50
2019,10,09,09,11,6.50
2019,10,09,09,12,6.50
2019,10,09,09,13,6.60
2019,10,09,09,14,6.60
2019,10,09,09,15,6.60
2019,10,09,09,16,6.70
2019,10,09,09,17,6.70
2019,10,09,09,18,6.70
2019,10,09,09,19,6.80
2019,10,09,09,20,6.80
2019,10,09,09,21,6.80
2019,10,09,09,22,6.80
2019,10,09,09,23,6.80
2019,10,09,09,24,6.90
2019,10,09,09,25,6.90
2019,10,09,09,26,6.90
2019,10,09,09,27,6.90
2019,10,09,09,28,6.90
2019,10,09,09,29,7.00
2019,10,09,09,30,7.00
2019,10,09,09,31,7.00
2019,10,09,09,32,7.10
2019,10,09,09,33,7.10
2019,10,09,09,34,7.10
2019,10,09,09,35,7.20
2019,10,09,09,36,7.20
2019,10,09,09,37,7.20
2019,10,09,09,38,7.20
2019,10,09,09,39,7.30
2019,10,09,09,40,7.30
2019,10,09,09,41,7.30
2019,10,09,09,42,7.30
2019,10,09,09,43,7.40
2019,10,09,09,44,7.40
2019,10,09,09,45,7.40
2019,10,09,09,46,7.40
2019,10,09,09,47,7.50
2019,10,09,09,48,7.50
2019,10,09,09,49,7.60
2019,10,09,09,50,7.60
2019,10,09,09,51,7.60
2019,10,09,09,52,7.70
2019,10,09,09,53,7.70
2019,10,09,09,54,7.70
2019,10,09,09,55,7.80
2019,10,09,09,56,7.80
2019,10,09,09,57,7.80
2019,10,09,09,58,7.90
2019,10,09,09,59,8.00
2019,10,09,10,00,8.10
2019,10,09,10,01,8.20
2019,10,09,10,02,8.30
2019,10,09,10,03,8.40
2019,10,09,10,04,8.40
2019,10,09,10,05,8.50
2019,10,09,10,06,8.60
2019,10,09,10,07,8.70
2019,10,09,10,08,8.70
2019,10,09,10,09,8.70
2019,10,09,10,10,8.80
2019,10,09,10,11,8.80
2019,10,09,10,12,8.90
2019,10,09,10,13,8.90
2019,10,09,10,14,8.90
2019,10,09,10,15,8.90
2019,10,09,10,16,9.00
2019,10,09,10,17,9.00
2019,10,09,10,18,9.00
2019,10,09,10,19,9.00
2019,10,09,10,20,9.00
2019,10,09,10,21,9.00
2019,10,09,10,22,8.90
2019,10,09,10,23,8.90
2019,10,09,10,24,8.90
2019,10,09,10,25,8.90
2019,10,09,10,26,8.90
2019,10,09,10,27,8.90
2019,10,09,10,28,8.90
2019,10,09,10,29,8.90
2019,10,09,10,30,8.90
2019,10,09,10,31,9.00
2019,10,09,10,32,9.00
2019,10,09,10,33,9.00
2019,10,09,10,34,9.10
2019,10,09,10,35,9.10
2019,10,09,10,36,9.10
2019,10,09,10,37,9.10
2019,10,09,10,38,9.10
2019,10,09,10,39,9.20
2019,10,09,10,40,9.20
2019,10,09,10,41,9.20
2019,10,09,10,42,9.30
2019,10,09,10,43,9.30
2019,10,09,10,44,9.30
2019,10,09,10,45,9.30
2019,10,09,10,46,9.40
2019,10,09,10,47,9.40
2019,10,09,10,48,9.40
2019,10,09,10,49,9.30
2019,10,09,10,50,9.30
2019,10,09,10,51,9.20
2019,10,09,10,52,9.20
2019,10,09,10,53,9.10
2019,10,09,10,54,9.10
2019,10,09,10,55,9.10
2019,10,09,10,56,9.10
2019,10,09,10,57,9.10
2019,10,09,10,58,9.20
2019,10,09,10,59,9.20
2019,10,09,11,00,9.20
2019,10,09,11,01,9.20
2019,10,09,11,02,9.20
2019,10,09,11,03,9.20
2019,10,09,11,04,9.10
2019,10,09,11,05,9.10
2019,10,09,11,06,9.10
2019,10,09,11,07,9.10
2019,10,09,11,08,9.10
2019,10,09,11,09,9.10
2019,10,09,11,10,9.10
2019,10,09,11,11,9.10
2019,10,09,11,12,9.20
2019,10,09,11,13,9.20
2019,10,09,11,14,9.20
2019,10,09,11,15,9.20
2019,10,09,11,16,9.20
2019,10,09,11,17,9.30
2019,10,09,11,18,9.30
2019,10,09,11,19,9.40
2019,10,09,11,20,9.40
2019,10,09,11,21,9.40
2019,10,09,11,22,9.40
2019,10,09,11,23,9.40
2019,10,09,11,24,9.40
2019,10,09,11,25,9.40
2019,10,09,11,26,9.40
2019,10,09,11,27,9.40
2019,10,09,11,28,9.40
2019,10,09,11,29,9.40
2019,10,09,11,30,9.40
2019,10,09,11,31,9.50
2019,10,09,11,32,9.50
2019,10,09,11,33,9.50
2019,10,09,11,34,9.50
2019,10,09,11,35,9.60
2019,10,09,11,36,9.60
2019,10,09,11,37,9.60
2019,10,09,11,38,9.60
2019,10,09,11,39,9.60
2019,10,09,11,40,9.60
2019,10,09,11,41,9.60
2019,10,09,11,42,9.60
2019,10,09,11,43,9.60
2019,10,09,11,44,9.60
2019,10,09,11,45,9.60
2019,10,09,11,46,9.60
2019,10,09,11,47,9.60
2019,10,09,11,48,9.60
2019,10,09,11,49,9.50
2019,10,09,11,50,9.50
2019,10,09,11,51,9.40
2019,10,09,11,52,9.40
2019,10,09,11,53,9.40
2019,10,09,11,54,9.40
2019,10,09,11,55,9.30
2019,10,09,11,56,9.30
2019,10,09,11,57,9.30
2019,10,09,11,58,9.40
2019,10,09,11,59,9.40
2019,10,09,12,00,9.40
2019,10,09,12,01,9.40
2019,10,09,12,02,9.40
2019,10,09,12,03,9.40
2019,10,09,12,04,9.50
2019,10,09,12,05,9.50
2019,10,09,12,06,9.40
2019,10,09,12,07,9.40
2019,10,09,12,08,9.30
2019,10,09,12,09,9.30
2019,10,09,12,10,9.30
2019,10,09,12,11,9.30
2019,10,09,12,12,9.20
2019,10,09,12,13,9.20
2019,10,09,12,14,9.20
2019,10,09,12,15,9.20
2019,10,09,12,16,9.20
2019,10,09,12,17,9.30
2019,10,09,12,18,9.20
2019,10,09,12,19,9.20
2019,10,09,12,20,9.20
2019,10,09,12,21,9.20
2019,10,09,12,22,9.30
2019,10,09,12,23,9.20
2019,10,09,12,24,9.20
2019,10,09,12,25,9.20
2019,10,09,12,26,9.20
2019,10,09,12,27,9.20
2019,10,09,12,28,9.20
2019,10,09,12,29,9.20
2019,10,09,12,30,9.20
2019,10,09,12,31,9.20
2019,10,09,12,32,9.20
2019,10,09,12,33,9.20
2019,10,09,12,34,9.20
2019,10,09,12,35,9.20
2019,10,09,12,36,9.20
2019,10,09,12,37,9.20
2019,10,09,12,38,9.30
2019,10,09,12,39,9.30
2019,10,09,12,40,9.30
2019,10,09,12,41,9.40
2019,10,09,12,42,9.40
2019,10,09,12,43,9.40
2019,10,09,12,44,9.40
2019,10,09,12,45,9.40
2019,10,09,12,46,9.40
2019,10,09,12,47,9.40
2019,10,09,12,48,9.40
2019,10,09,12,49,9.40
2019,10,09,12,50,9.40
2019,10,09,12,51,9.50
2019,10,09,12,52,9.50
2019,10,09,12,53,9.50
2019,10,09,12,54,9.50
2019,10,09,12,55,9.60
2019,10,09,12,56,9.60
2019,10,09,12,57,9.60
2019,10,09,12,58,9.60
2019,10,09,12,59,9.60
2019,10,09,13,00,9.60
2019,10,09,13,01,9.60
2019,10,09,13,02,9.70
2019,10,09,13,03,9.70
2019,10,09,13,04,9.80
2019,10,09,13,05,9.80
2019,10,09,13,06,9.90
2019,10,09,13,07,9.90
2019,10,09,13,08,9.90
2019,10,09,13,09,9.90
2019,10,09,13,10,9.90
2019,10,09,13,11,9.90
2019,10,09,13,12,9.90
2019,10,09,13,13,9.90
2019,10,09,13,14,9.90
2019,10,09,13,15,9.80
2019,10,09,13,16,9.80
2019,10,09,13,17,9.70
2019,10,09,13,18,9.70
2019,10,09,13,19,9.70
2019,10,09,13,20,9.60
2019,10,09,13,21,9.60
2019,10,09,13,22,9.60
2019,10,09,13,23,9.60
2019,10,09,13,24,9.60
2019,10,09,13,25,9.60
2019,10,09,13,26,9.60
2019,10,09,13,27,9.60
2019,10,09,13,28,9.60
2019,10,09,13,29,9.60
2019,10,09,13,30,9.70
2019,10,09,13,31,9.70
2019,10,09,13,32,9.70
2019,10,09,13,33,9.80
2019,10,09,13,34,9.80
2019,10,09,13,35,9.80
2019,10,09,13,36,9.80
2019,10,09,13,37,9.90
2019,10,09,13,38,9.90
2019,10,09,13,39,9.90
2019,10,09,13,40,10.00
2019,10,09,13,41,10.00
2019,10,09,13,42,10.00
2019,10,09,13,43,10.00
2019,10,09,13,44,10.10
2019,10,09,13,45,10.10
2019,10,09,13,46,10.10
2019,10,09,13,47,10.10
2019,10,09,13,48,10.10
2019,10,09,13,49,10.00
2019,10,09,13,50,10.00
2019,10,09,13,51,9.90
2019,10,09,13,52,9.90
2019,10,09,13,53,9.90
2019,10,09,13,54,9.90
2019,10,09,13,55,9.90
2019,10,09,13,56,9.90
2019,10,09,13,57,9.90
2019,10,09,13,58,9.90
2019,10,09,13,59,9.80
2019,10,09,14,00,9.80
2019,10,09,14,01,9.80
2019,10,09,14,02,9.80
2019,10,09,14,03,9.80
2019,10,09,14,04,9.80
2019,10,09,14,05,9.80
2019,10,09,14,06,9.80
2019,10,09,14,07,9.90
2019,10,09,14,08,9.90
2019,10,09,14,09,10.00
2019,10,09,14,10,10.00
2019,10,09,14,11,10.10
2019,10,09,14,12,10.10
2019,10,09,14,13,10.20
2019,10,09,14,14,10.20
2019,10,09,14,15,10.20
2019,10,09,14,16,10.30
2019,10,09,14,17,10.30
2019,10,09,14,18,10.30
2019,10,09,14,19,10.20
2019,10,09,14,20,10.20
2019,10,09,14,21,10.20
2019,10,09,14,22,10.20
2019,10,09,14,23,10.10
2019,10,09,14,24,10.10
2019,10,09,14,25,10.00
2019,10,09,14,26,9.90
2019,10,09,14,27,9.90
2019,10,09,14,28,9.90
2019,10,09,14,29,9.90
2019,10,09,14,30,10.00
2019,10,09,14,31,10.00
2019,10,09,14,32,10.10
2019,10,09,14,33,10.10
2019,10,09,14,34,10.20
2019,10,09,14,35,10.20
2019,10,09,14,36,10.30
2019,10,09,14,37,10.30
2019,10,09,14,38,10.30
2019,10,09,14,39,10.30
2019,10,09,14,40,10.20
2019,10,09,14,41,10.20
2019,10,09,14,42,10.10
2019,10,09,14,43,10.10
2019,10,09,14,44,10.10
2019,10,09,14,45,10.10
2019,10,09,14,46,10.10
2019,10,09,14,47,10.10
2019,10,09,14,48,10.20
2019,10,09,14,49,10.20
2019,10,09,14,50,10.20
2019,10,09,14,51,10.20
2019,10,09,14,52,10.20
2019,10,09,14,53,10.20
2019,10,09,14,54,10.20
2019,10,09,14,55,10.20
2019,10,09,14,56,10.20
2019,10,09,14,57,10.30
2019,10,09,14,58,10.30
2019,10,09,14,59,10.30
2019,10,09,15,00,10.30
2019,10,09,15,01,10.20
2019,10,09,15,02,10.20
2019,10,09,15,03,10.10
2019,10,09,15,04,10.10
2019,10,09,15,05,10.00
2019,10,09,15,06,10.00
2019,10,09,15,07,10.00
2019,10,09,15,08,10.00
2019,10,09,15,09,10.10
2019,10,09,15,10,10.00
2019,10,09,15,11,10.00
2019,10,09,15,12,10.00
2019,10,09,15,13,10.10
2019,10,09,15,14,10.10
2019,10,09,15,15,10.10
2019,10,09,15,16,10.20
2019,10,09,15,17,10.20
2019,10,09,15,18,10.20
2019,10,09,15,19,10.20
2019,10,09,15,20,10.20
2019,10,09,15,21,10.20
2019,10,09,15,22,10.10
2019,10,09,15,23,10.10
2019,10,09,15,24,10.00
2019,10,09,15,25,10.00
2019,10,09,15,26,10.10
2019,10,09,15,27,10.10
2019,10,09,15,28,10.10
2019,10,09,15,29,10.10
2019,10,09,15,30,10.20
2019,10,09,15,31,10.20
2019,10,09,15,32,10.20
2019,10,09,15,33,10.20
2019,10,09,15,34,10.30
2019,10,09,15,35,10.30
2019,10,09,15,36,10.30
2019,10,09,15,37,10.30
2019,10,09,15,38,10.40
2019,10,09,15,39,10.40
2019,10,09,15,40,10.40
2019,10,09,15,41,10.40
2019,10,09,15,42,10.40
2019,10,09,15,43,10.40
2019,10,09,15,44,10.40
2019,10,09,15,45,10.40
2019,10,09,15,46,10.40
2019,10,09,15,47,10.40
2019,10,09,15,48,10.40
2019,10,09,15,49,10.40
2019,10,09,15,50,10.30
2019,10,09,15,51,10.30
2019,10,09,15,52,10.30
2019,10,09,15,53,10.30
2019,10,09,15,54,10.30
2019,10,09,15,55,10.30
2019,10,09,15,56,10.20
2019,10,09,15,57,10.20
2019,10,09,15,58,10.20
2019,10,09,15,59,10.30
2019,10,09,16,00,10.30
2019,10,09,16,01,10.30
2019,10,09,16,02,10.30
2019,10,09,16,03,10.20
2019,10,09,16,04,10.20
2019,10,09,16,05,10.20
2019,10,09,16,06,10.20
2019,10,09,16,07,10.20
2019,10,09,16,08,10.20
2019,10,09,16,09,10.20
2019,10,09,16,10,10.20
2019,10,09,16,11,10.20
2019,10,09,16,12,10.30
2019,10,09,16,13,10.30
2019,10,09,16,14,10.20
2019,10,09,16,15,10.20
2019,10,09,16,16,10.20
2019,10,09,16,17,10.20
2019,10,09,16,18,10.20
2019,10,09,16,19,10.30
2019,10,09,16,20,10.30
2019,10,09,16,21,10.30
2019,10,09,16,22,10.30
2019,10,09,16,23,10.40
2019,10,09,16,24,10.40
2019,10,09,16,25,10.40
2019,10,09,16,26,10.40
2019,10,09,16,27,10.40
2019,10,09,16,28,10.40
2019,10,09,16,29,10.50
2019,10,09,16,30,10.50
2019,10,09,16,31,10.50
2019,10,09,16,32,10.50
2019,10,09,16,33,10.60
2019,10,09,16,34,10.60
2019,10,09,16,35,10.50
2019,10,09,16,36,10.50
2019,10,09,16,37,10.40
2019,10,09,16,38,10.40
2019,10,09,16,39,10.30
2019,10,09,16,40,10.30
2019,10,09,16,41,10.30
2019,10,09,16,42,10.20
2019,10,09,16,43,10.20
2019,10,09,16,44,10.20
2019,10,09,16,45,10.20
2019,10,09,16,46,10.20
2019,10,09,16,47,10.20
2019,10,09,16,48,10.20
2019,10,09,16,49,10.20
2019,10,09,16,50,10.20
2019,10,09,16,51,10.20
2019,10,09,16,52,10.20
2019,10,09,16,53,10.30
2019,10,09,16,54,10.30
2019,10,09,16,55,10.30
2019,10,09,16,56,10.30
2019,10,09,16,57,10.20
2019,10,09,16,58,10.20
2019,10,09,16,59,10.20
2019,10,09,17,00,10.20
2019,10,09,17,01,10.30
2019,10,09,17,02,10.30
2019,10,09,17,03,10.30
2019,10,09,17,04,10.30
2019,10,09,17,05,10.40
2019,10,09,17,06,10.40
2019,10,09,17,07,10.40
2019,10,09,17,08,10.40
2019,10,09,17,09,10.40
2019,10,09,17,10,10.40
2019,10,09,17,11,10.40
2019,10,09,17,12,10.40
2019,10,09,17,13,10.40
2019,10,09,17,14,10.30
2019,10,09,17,15,10.30
2019,10,09,17,16,10.30
2019,10,09,17,17,10.30
2019,10,09,17,18,10.30
2019,10,09,17,19,10.30
2019,10,09,17,20,10.30
2019,10,09,17,21,10.30
2019,10,09,17,22,10.30
2019,10,09,17,23,10.30
2019,10,09,17,24,10.30
2019,10,09,17,25,10.30
2019,10,09,17,26,10.20
2019,10,09,17,27,10.20
2019,10,09,17,28,10.20
2019,10,09,17,29,10.20
2019,10,09,17,30,10.30
2019,10,09,17,31,10.30
2019,10,09,17,32,10.30
2019,10,09,17,33,10.30
2019,10,09,17,34,10.30
2019,10,09,17,35,10.30
2019,10,09,17,36,10.30
2019,10,09,17,37,10.30
2019,10,09,17,38,10.30
2019,10,09,17,39,10.30
2019,10,09,17,40,10.30
2019,10,09,17,41,10.30
2019,10,09,17,42,10.30
2019,10,09,17,43,10.30
2019,10,09,17,44,10.40
2019,10,09,17,45,10.40
2019,10,09,17,46,10.40
2019,10,09,17,47,10.30
2019,10,09,17,48,10.30
2019,10,09,17,49,10.30
2019,10,09,17,50,10.30
2019,10,09,17,51,10.30
2019,10,09,17,52,10.30
2019,10,09,17,53,10.30
2019,10,09,17,54,10.30
2019,10,09,17,55,10.30
2019,10,09,17,56,10.30
2019,10,09,17,57,10.30
2019,10,09,17,58,10.30
2019,10,09,17,59,10.30
2019,10,09,18,00,10.30
2019,10,09,18,01,10.30
2019,10,09,18,02,10.30
2019,10,09,18,03,10.30
2019,10,09,18,04,10.20
2019,10,09,18,05,10.20
2019,10,09,18,06,10.20
2019,10,09,18,07,10.10
2019,10,09,18,08,10.10
2019,10,09,18,09,10.10
2019,10,09,18,10,10.10
2019,10,09,18,11,10.00
2019,10,09,18,12,10.00
2019,10,09,18,13,10.00
2019,10,09,18,14,10.00
2019,10,09,18,15,9.90
2019,10,09,18,16,9.90
2019,10,09,18,17,9.90
2019,10,09,18,18,9.90
2019,10,09,18,19,9.90
2019,10,09,18,20,9.90
2019,10,09,18,21,9.90
2019,10,09,18,22,9.90
2019,10,09,18,23,9.80
2019,10,09,18,24,9.80
2019,10,09,18,25,9.80
2019,10,09,18,26,9.80
2019,10,09,18,27,9.80
2019,10,09,18,28,9.80
2019,10,09,18,29,9.80
2019,10,09,18,30,9.70
2019,10,09,18,31,9.70
2019,10,09,18,32,9.70
2019,10,09,18,33,9.60
2019,10,09,18,34,9.60
2019,10,09,18,35,9.60
2019,10,09,18,36,9.50
2019,10,09,18,37,9.50
2019,10,09,18,38,9.50
2019,10,09,18,39,9.40
2019,10,09,18,40,9.40
2019,10,09,18,41,9.40
2019,10,09,18,42,9.40
2019,10,09,18,43,9.40
2019,10,09,18,44,9.40
2019,10,09,18,45,9.40
2019,10,09,18,46,9.40
2019,10,09,18,47,9.40
2019,10,09,18,48,9.40
2019,10,09,18,49,9.40
2019,10,09,18,50,9.40
2019,10,09,18,51,9.40
2019,10,09,18,52,9.40
2019,10,09,18,53,9.40
2019,10,09,18,54,9.40
2019,10,09,18,55,9.40
2019,10,09,18,56,9.40
2019,10,09,18,57,9.40
2019,10,09,18,58,9.30
2019,10,09,18,59,9.30
2019,10,09,19,00,9.30
2019,10,09,19,01,9.20
2019,10,09,19,02,9.20
2019,10,09,19,03,9.20
2019,10,09,19,04,9.10
2019,10,09,19,05,9.10
2019,10,09,19,06,9.00
2019,10,09,19,07,9.00
2019,10,09,19,08,8.90
2019,10,09,19,09,8.90
2019,10,09,19,10,8.80
2019,10,09,19,11,8.80
2019,10,09,19,12,8.70
2019,10,09,19,13,8.70
2019,10,09,19,14,8.70
2019,10,09,19,15,8.60
2019,10,09,19,16,8.60
2019,10,09,19,17,8.60
2019,10,09,19,18,8.50
2019,10,09,19,19,8.50
2019,10,09,19,20,8.50
2019,10,09,19,21,8.40
2019,10,09,19,22,8.40
2019,10,09,19,23,8.40
2019,10,09,19,24,8.40
2019,10,09,19,25,8.30
2019,10,09,19,26,8.30
2019,10,09,19,27,8.30
2019,10,09,19,28,8.30
2019,10,09,19,29,8.20
2019,10,09,19,30,8.20
2019,10,09,19,31,8.10
2019,10,09,19,32,8.00
2019,10,09,19,33,8.00
2019,10,09,19,34,7.90
2019,10,09,19,35,7.80
2019,10,09,19,36,7.80
2019,10,09,19,37,7.80
2019,10,09,19,38,7.70
2019,10,09,19,39,7.70
2019,10,09,19,40,7.70
2019,10,09,19,41,7.60
2019,10,09,19,42,7.60
2019,10,09,19,43,7.50
2019,10,09,19,44,7.50
2019,10,09,19,45,7.50
2019,10,09,19,46,7.50
2019,10,09,19,47,7.50
2019,10,09,19,48,7.40
2019,10,09,19,49,7.40
2019,10,09,19,50,7.30
2019,10,09,19,51,7.30
2019,10,09,19,52,7.30
2019,10,09,19,53,7.20
2019,10,09,19,54,7.20
2019,10,09,19,55,7.20
2019,10,09,19,56,7.20
2019,10,09,19,57,7.10
2019,10,09,19,58,7.10
2019,10,09,19,59,7.10
2019,10,09,20,00,7.10
2019,10,09,20,01,7.10
2019,10,09,20,02,7.00
2019,10,09,20,03,7.00
2019,10,09,20,04,7.00
2019,10,09,20,05,7.00
2019,10,09,20,06,6.90
2019,10,09,20,07,6.90
2019,10,09,20,08,6.90
2019,10,09,20,09,6.90
2019,10,09,20,10,6.90
2019,10,09,20,11,6.80
2019,10,09,20,12,6.80
2019,10,09,20,13,6.80
2019,10,09,20,14,6.80
2019,10,09,20,15,6.80
2019,10,09,20,16,6.80
2019,10,09,20,17,6.80
2019,10,09,20,18,6.80
2019,10,09,20,19,6.80
2019,10,09,20,20,6.70
2019,10,09,20,21,6.70
2019,10,09,20,22,6.70
2019,10,09,20,23,6.70
2019,10,09,20,24,6.70
2019,10,09,20,25,6.70
2019,10,09,20,26,6.70
2019,10,09,20,27,6.70
2019,10,09,20,28,6.70
2019,10,09,20,29,6.60
2019,10,09,20,30,6.60
2019,10,09,20,31,6.60
2019,10,09,20,32,6.50
2019,10,09,20,33,6.40
2019,10,09,20,34,6.40
2019,10,09,20,35,6.40
2019,10,09,20,36,6.30
2019,10,09,20,37,6.30
2019,10,09,20,38,6.30
2019,10,09,20,39,6.30
2019,10,09,20,40,6.30
2019,10,09,20,41,6.30
2019,10,09,20,42,6.30
2019,10,09,20,43,6.30
2019,10,09,20,44,6.30
2019,10,09,20,45,6.30
2019,10,09,20,46,6.20
2019,10,09,20,47,6.20
2019,10,09,20,48,6.20
2019,10,09,20,49,6.20
2019,10,09,20,50,6.20
2019,10,09,20,51,6.20
2019,10,09,20,52,6.20
2019,10,09,20,53,6.20
2019,10,09,20,54,6.10
2019,10,09,20,55,6.10
2019,10,09,20,56,6.10
2019,10,09,20,57,6.10
2019,10,09,20,58,6.10
2019,10,09,20,59,6.10
2019,10,09,21,00,6.10
2019,10,09,21,01,6.10
2019,10,09,21,02,6.10
2019,10,09,21,03,6.10
2019,10,09,21,04,6.00
2019,10,09,21,05,6.00
2019,10,09,21,06,6.00
2019,10,09,21,07,5.90
2019,10,09,21,08,5.90
2019,10,09,21,09,5.80
2019,10,09,21,10,5.80
2019,10,09,21,11,5.80
2019,10,09,21,12,5.70
2019,10,09,21,13,5.70
2019,10,09,21,14,5.70
2019,10,09,21,15,5.70
2019,10,09,21,16,5.60
2019,10,09,21,17,5.60
2019,10,09,21,18,5.60